Regional Weather Roundup
Issued by NWS Northern Indiana

Home | Current Version | Previous Version | Text Only | Print | Product List | Glossary On
Versions: 1 2 3 4 5 6 7 8 9 10 11 12 13 14 15 16 17 18 19 20 21 22 23 24 25 26 27 28 29 30 31 32 33 34 35 36 37 38 39 40 41 42 43 44 45 46 47 48 49 50
000
ASUS43 KIWX 261610
RWRIWX

KIWX WEATHER ROUNDUP
NATIONAL WEATHER SERVICE NORTHERN INDIANA
1200 PM EDT WED APR 26 2017

NOTE: "FAIR" INDICATES FEW OR NO CLOUDS BELOW 12,000 FEET WITH NO
SIGNIFICANT WEATHER AND/OR OBSTRUCTIONS TO VISIBILITY.

* THESE STATIONS ARE NOT UNDER NWS QUALITY CONTROL. THEY ALSO MAY NOT
  REPORT WEATHER SUCH AS PRECIPITATION OR FOG.

INZ001>027-261700-
NORTHERN INDIANA

CITY           SKY/WX    TMP DP  RH WIND       PRES   REMARKS
GARY*          MOSUNNY   75  55  50 S16G28    29.44S
VALPARAISO     FAIR      76  59  55 S18G25    29.46R
MICHIGAN CITY* FAIR      73  57  56 S8G22     29.46R
LAPORTE*       FAIR      74  58  58 SE17G26   29.47S
KNOX*          FAIR      75  32  20 SE25G32   29.47S
SOUTH BEND     FAIR      74  59  59 S21G31    29.48F
ELKHART*       FAIR      73  57  56 S10       29.49F
GOSHEN         FAIR      73  57  57 SE21      29.51F
MONTICELLO*    FAIR      73  58  57 S18       29.49S
LOGANSPORT*    FAIR      73  59  60 S23G29    29.52F
ROCHESTER*     FAIR      75  59  57 S16G23    29.51F
WARSAW*        FAIR      73  57  56 S15G22    29.53F
ANGOLA*        SUNNY     72  64  78 S16       29.56F
FORT WAYNE     FAIR      78  58  49 S17G23    29.58F
HUNTINGTON*    FAIR     N/A N/A N/A S14G20    29.56F
PERU/GRISSOM   FAIR      74  61  62 S21G26    29.51F
MARION*        FAIR      73  59  60 S20G28    29.57F

$$
INZ028>050-261700-
CENTRAL INDIANA

CITY           SKY/WX    TMP DP  RH WIND       PRES   REMARKS
LAFAYETTE      FAIR      75  60  59 S15G24    29.49R
KOKOMO*        FAIR      75  60  59 S21G28    29.56F
MUNCIE*        FAIR      77  58  51 S17G24    29.60F
INDIANAPOLIS   FAIR      74  60  61 S16G23    29.57F

$$
MIZ043>046-050>051-056>058-064>065-071>073-077>080-261700-
SOUTHWEST LOWER MICHIGAN

CITY           SKY/WX    TMP DP  RH WIND       PRES   REMARKS
BATTLE CREEK   FAIR      73  58  59 S20G28    29.54F
BENTON HARBOR  FAIR      75  58  55 S16G23    29.46F
COLDWATER*     FAIR      71  57  60 SE16G22   29.56F
HILLSDALE*     FAIR      72  55  56 S14G21    29.59F
HOLLAND        FAIR      75  57  53 SE16      29.48R
GRAND RAPIDS   PTSUNNY   74  58  57 SE21G28   29.49F
KALAMAZOO      FAIR      73  55  53 SE10G23   29.50F
STURGIS*       FAIR      73  58  59 S17G25    29.52F
THREE RIVERS*  FAIR      73  57  59 S14G23    29.52F

$$
OHZ001>008-015>018-024>025-261700-
NORTHWEST OHIO

CITY           SKY/WX    TMP DP  RH WIND       PRES   REMARKS
WAUSEON*       FAIR      77  57  50 S18G25    29.61F
DEFIANCE       FAIR      74  57  55 S15G24    29.61F
FINDLAY        FAIR      76  56  49 S20G28    29.64F
TOLEDO EXPRESS FAIR      75  58  55 S9        29.63F
TOLEDO METCALF FAIR      74  60  61 S16       29.65F
LIMA           FAIR      74  57  55 S18G26    29.65F

$$
AND FOR LAKE MICHIGAN COASTAL AND OPEN LAKE BUOY OBSERVATIONS

STATION/POSITION TEMP    WIND        PRES    VSBY  WAVE
                 AIR SEA DIR/SP/G                  HT/PER
                 (F)     (DEG/KT/KT) (MB)    (MI)  (FT/S)
CALUMET HARBOR    73     170/ 12/ 19  996.3R
MICHIGAN CITY     72     170/ 18/ 25   N/A
BURNS HARBOR      73     190/ 20/ 24  997.3S
SOUTH LAKE BUOY   49 41  130/ 14/ 16  997.1          2/ 4
4 MI NW BRIDGMAN  63 49  180/ 12/ 16  997.4          2/ 3
MICHIGAN CITY     66 49                N/A           2/ 2

$$
&&




USA.gov is the U.S. government's official web portal to all federal, state and local government web resources and services.